Nice, France

2:41 PM CET on December 16, 2017 (GMT +0100)
Nice-Cote d'Azur

Weather History for LFMN - December, 2013

Change the Weather History Date:

Saturday, December 28, 2013

  Actual Average Record
Temperature  
Mean Temperature 47 °F -  
Max Temperature 50 °F 54 °F 62 °F (2016)
Min Temperature 44 °F 39 °F 33 °F (1996)
Degree Days  
Heating Degree Days 18    
Moisture  
Dew Point 39 °F    
Average Humidity 70    
Maximum Humidity 87    
Minimum Humidity 50    
Precipitation  
Precipitation 0.75 in 0.11 in - ()
Sea Level Pressure  
Sea Level Pressure 29.93 in    
Wind  
Wind Speed 10 mph ()    
Max Wind Speed 15 mph    
Max Gust Speed -    
Visibility 8.3 miles    
Events Rain    
Averages and records for this station are not official NWS values.
T = Trace of Precipitation, MM = Missing Value Source: Averaged Metar Reports

Daily Weather History Graph

Daily Weather History Graph

Search for Another Location

Airport or City:

Trip Planner

Search our weather history database for the weather conditions in past years. The results will help you decide how hot, cold, wet, or windy it might be!

Date:

Astronomy

Dec. 28, 2013 Rise Set
Actual Time 8:04 AM CET 5:01 PM CET
Civil Twilight 7:31 AM CET 5:34 PM CET
Nautical Twilight 6:55 AM CET 6:10 PM CET
Astronomical Twilight 6:20 AM CET 6:45 PM CET
Moon 3:18 AM CET (12/28) 1:45 PM CET (12/28)
Length of Visible Light 10h 03m
Length of Day
8h 57m
Waning Crescent, 21% of the Moon is Illuminated
Dec 28
Waning Crescent
Jan 1
New
Jan 8
First Quarter
Jan 16
Full
Jan 24
Last Quarter

Hourly Weather History & Observations

Time (CET) Temp. Windchill Dew Point Humidity Pressure Visibility Wind Dir Wind Speed Gust Speed Precip Events Conditions
12:00 AM 47 °F - 36 °F 54% 29.97 in 19 mi NNW 10.4 mph - -   Clear
12:00 AM 46.4 °F 41.5 °F 35.6 °F 66% 29.95 in - NNW 10.4 mph - N/A   Clear
1:00 AM 46 °F - 35 °F 56% 29.97 in 19 mi NNW 11.5 mph - -   Clear
1:00 AM 46.4 °F 40.7 °F 35.6 °F 66% 29.95 in - NNW 12.7 mph - N/A   Clear
1:30 AM 46.4 °F 41.1 °F 35.6 °F 66% 29.95 in - NNW 11.5 mph - N/A   Clear
2:00 AM 46 °F - 35 °F 54% 29.96 in 19 mi NNW 9.2 mph - -   Clear
2:00 AM 46.4 °F 41.5 °F 35.6 °F 66% 29.95 in - NNW 10.4 mph - N/A   Clear
2:30 AM 46.4 °F 41.1 °F 33.8 °F 62% 29.95 in 6.2 mi NNW 11.5 mph - N/A   Scattered Clouds
3:00 AM 46 °F - 35 °F 53% 29.98 in 19 mi NNW 10.4 mph - -   Clear
3:00 AM 46.4 °F 41.5 °F 33.8 °F 62% 29.95 in - NNW 10.4 mph - N/A   Clear
3:30 AM 46.4 °F 41.1 °F 35.6 °F 66% 29.95 in - NNW 11.5 mph - N/A   Clear
4:00 AM 46 °F - 34 °F 52% 29.96 in 19 mi NNW 12.7 mph - -   Partly Cloudy
4:00 AM 46.4 °F 40.7 °F 33.8 °F 62% 29.95 in 6.2 mi NNW 12.7 mph - N/A   Mostly Cloudy
4:30 AM 46.4 °F 40.7 °F 33.8 °F 62% 29.95 in 6.2 mi NNW 12.7 mph - N/A   Mostly Cloudy
5:00 AM 46 °F - 34 °F 52% 29.95 in 19 mi NNW 10.4 mph - -   Scattered Clouds
5:00 AM 46.4 °F 41.1 °F 33.8 °F 62% 29.95 in 6.2 mi NNW 11.5 mph - N/A   Mostly Cloudy
5:30 AM 46.4 °F 41.5 °F 33.8 °F 62% 29.95 in 6.2 mi NNW 10.4 mph - N/A   Mostly Cloudy
6:00 AM 46 °F - 34 °F 53% 29.95 in 19 mi NNW 11.5 mph - -   Scattered Clouds
6:00 AM 46.4 °F 41.1 °F 33.8 °F 62% 29.95 in 6.2 mi NNW 11.5 mph - N/A   Mostly Cloudy
6:30 AM 46.4 °F 40.7 °F 33.8 °F 62% 29.95 in 6.2 mi NNW 12.7 mph - N/A   Mostly Cloudy
7:00 AM 46 °F - 34 °F 52% 29.96 in 19 mi NNW 10.4 mph - -   Scattered Clouds
7:00 AM 46.4 °F 41.5 °F 33.8 °F 62% 29.95 in 6.2 mi NNW 10.4 mph - N/A   Mostly Cloudy
7:30 AM 46.4 °F 41.5 °F 33.8 °F 62% 29.95 in 6.2 mi NNW 10.4 mph - N/A   Mostly Cloudy
8:00 AM 45 °F - 34 °F 55% 29.96 in 37 mi NNW 11.5 mph - -   Clear
8:00 AM 44.6 °F 38.8 °F 33.8 °F 66% 29.95 in 6.2 mi NNW 11.5 mph - N/A   Mostly Cloudy
8:30 AM 46.4 °F 40.7 °F 33.8 °F 62% 29.95 in 6.2 mi NNW 12.7 mph - N/A   Mostly Cloudy
9:00 AM 46 °F - 35 °F 54% 29.98 in 19 mi NNW 13.8 mph - -   Mostly Cloudy
9:00 AM 46.4 °F 40.4 °F 35.6 °F 66% 29.95 in 6.2 mi NNW 13.8 mph - N/A   Mostly Cloudy
9:30 AM 46.4 °F 40.1 °F 35.6 °F 66% 29.98 in 6.2 mi NNW 15.0 mph - N/A   Mostly Cloudy
10:00 AM 47 °F - 35 °F 53% 29.99 in 19 mi NNW 12.7 mph - -   Mostly Cloudy
10:00 AM 48.2 °F - 35.6 °F 62% 29.98 in 6.2 mi NNW 13.8 mph - N/A   Mostly Cloudy
10:21 AM 48.2 °F - 35.6 °F 62% 29.98 in 6.2 mi NNW 13.8 mph - N/A   Mostly Cloudy
11:00 AM 49 °F - 36 °F 50% 29.99 in 19 mi NNW 12.7 mph - -   Mostly Cloudy
11:00 AM 48.2 °F - 35.6 °F 62% 29.98 in 6.2 mi NNW 12.7 mph - N/A   Mostly Cloudy
11:22 AM 50.0 °F - 37.4 °F 62% 29.98 in 6.2 mi NNW 10.4 mph - N/A   Mostly Cloudy
12:00 PM 49 °F - 38 °F 55% 29.98 in 19 mi NNW 11.5 mph - - Rain Light Rain
12:00 PM 50.0 °F - 37.4 °F 62% 29.98 in 6.2 mi NNW 11.5 mph - N/A Rain Light Rain
12:23 PM 50.0 °F - 37.4 °F 62% 29.95 in 6.2 mi NNW 9.2 mph - N/A Rain Light Rain
1:00 PM 50 °F - 40 °F 58% 29.94 in 7 mi NNW 8.1 mph - - Rain Light Rain
1:00 PM 50.0 °F - 41.0 °F 71% 29.92 in 6.2 mi NNW 8.1 mph - N/A Rain Light Rain
1:30 PM 50.0 °F - 41.0 °F 71% 29.92 in 6.2 mi NNW 10.4 mph - N/A Rain Light Rain
2:00 PM 49 °F - 43 °F 72% 29.93 in 4 mi North 6.9 mph - - Rain Light Rain
2:00 PM 50.0 °F - 42.8 °F 76% 29.92 in 3.7 mi North 6.9 mph - N/A Rain Light Rain
2:30 PM 50.0 °F - 44.6 °F 82% 29.92 in 1.9 mi North 5.8 mph - N/A Rain Light Rain
3:00 PM 49 °F - 45 °F 83% 29.92 in 3 mi North 9.2 mph - - Rain Light Rain
3:00 PM 50.0 °F - 44.6 °F 82% 29.92 in 3.1 mi North 9.2 mph - N/A Rain Light Rain
3:30 PM 48.2 °F - 44.6 °F 87% 29.92 in 1.9 mi North 11.5 mph - N/A Rain Light Rain
4:00 PM 47 °F - 44 °F 87% 29.92 in 4 mi North 10.4 mph - - Rain Light Rain
4:08 PM 48.2 °F - 44.6 °F 87% 29.92 in 3.7 mi NNW 6.9 mph - N/A Rain Light Rain
4:30 PM 48.2 °F - 44.6 °F 87% 29.89 in 3.1 mi NNE 11.5 mph - N/A Rain Light Rain
4:52 PM 48.2 °F - 44.6 °F 87% 29.89 in 3.7 mi NNE 12.7 mph - N/A Rain Light Rain
5:00 PM 48 °F - 44 °F 82% 29.90 in 4 mi NNE 10.4 mph - - Rain Light Rain
5:24 PM 48.2 °F - 44.6 °F 87% 29.89 in 4.3 mi North 10.4 mph - N/A Rain Light Rain
6:00 PM 48 °F - 44 °F 81% 29.88 in 5 mi North 9.2 mph - - Rain Light Rain
6:00 PM 48.2 °F - 44.6 °F 87% 29.86 in 5.0 mi North 8.1 mph - N/A Rain Light Rain
6:30 PM 48.2 °F - 44.6 °F 87% 29.86 in 5.0 mi North 10.4 mph - N/A Rain Light Rain
7:00 PM 48 °F - 44 °F 83% 29.87 in 7 mi NNW 10.4 mph - - Rain Light Rain
7:00 PM 48.2 °F - 44.6 °F 87% 29.86 in 6.2 mi NNW 10.4 mph - N/A   Mostly Cloudy
7:08 PM 48.2 °F - 44.6 °F 87% 29.86 in 6.2 mi NNW 10.4 mph - N/A   Mostly Cloudy
7:30 PM 48.2 °F - 44.6 °F 87% 29.86 in 6.2 mi NNW 11.5 mph - N/A Rain Light Rain
8:00 PM 47 °F - 44 °F 85% 29.86 in 7 mi NNW 15.0 mph - - Rain Light Rain
8:00 PM 48.2 °F - 44.6 °F 87% 29.86 in 6.2 mi NNW 13.8 mph - N/A Rain Light Rain
8:30 PM 48.2 °F - 44.6 °F 87% 29.86 in 6.2 mi NNW 13.8 mph - N/A Rain Light Rain
9:00 PM 48 °F - 44 °F 81% 29.87 in 12 mi NW 13.8 mph - - Rain Light Rain
9:00 PM 48.2 °F - 44.6 °F 87% 29.86 in 6.2 mi NNW 13.8 mph - N/A   Overcast
9:30 PM 48.2 °F - 44.6 °F 87% 29.86 in 6.2 mi NW 13.8 mph - N/A   Overcast
10:00 PM 48 °F - 44 °F 81% 29.87 in 12 mi NNW 11.5 mph - -   Partly Cloudy
10:00 PM 48.2 °F - 44.6 °F 87% 29.86 in 6.2 mi NNW 11.5 mph - N/A   Mostly Cloudy
10:30 PM 48.2 °F - 42.8 °F 82% 29.86 in 6.2 mi NNW 8.1 mph - N/A   Mostly Cloudy
11:00 PM 49 °F - 43 °F 72% 29.87 in 12 mi NW 12.7 mph - -   Scattered Clouds
11:00 PM 48.2 °F - 42.8 °F 82% 29.86 in 6.2 mi NW 11.5 mph - N/A   Mostly Cloudy
11:30 PM 48.2 °F - 42.8 °F 82% 29.86 in 6.2 mi NW 9.2 mph - N/A   Mostly Cloudy